Theta_e
318 318 318 318 319 320 320 321 321 322 322 322 322 322 321 321 321 322 322 322 321 321 322 323 322 321 323 322 322 320 318 295 295 294 294 298 314 322 322 324 324 325 325 300 299 300 296 296 296 297 295 293 293 292 293 296 293 292 286 284 283 282 282 286 286 287 290 287 288 287 288 288 285 288 288 290 287 286 286 285 287 289 289 290 290 292 293 293
318 318 318 318 319 320 320 320 321 321 321 321 321 322 321 320 321 322 321 322 321 322 323 324 323 323 323 323 321 321 305 296 293 294 294 308 319 322 323 322 324 323 317 299 295 296 295 294 294 297 292 290 294 291 295 292 294 287 282 284 282 283 285 287 288 288 288 286 287 287 288 290 288 288 290 286 284 285 284 284 286 285 287 289 290 291 291 292
317 317 317 317 318 319 319 320 320 320 321 321 321 321 320 320 321 321 322 321 321 323 323 324 324 324 324 322 324 321 304 295 294 291 295 314 318 321 323 322 323 322 303 297 296 295 295 294 294 296 292 291 292 289 293 290 293 287 286 283 282 286 286 287 287 286 288 287 285 285 286 286 286 287 288 285 283 285 283 282 283 283 284 288 291 292 292 292
316 316 316 316 317 318 318 319 319 318 320 321 321 320 320 320 320 321 322 321 322 323 323 324 324 323 319 320 323 306 299 293 289 291 298 315 318 321 321 322 321 314 301 300 298 297 297 296 295 294 290 290 289 292 289 289 288 287 285 281 285 286 285 287 288 287 287 287 285 284 285 285 285 286 286 285 286 283 283 287 285 285 286 288 290 290 291 291
316 316 316 316 316 317 316 317 318 319 319 320 320 319 319 320 320 320 321 321 321 322 324 324 325 323 317 316 314 301 296 287 287 294 300 314 318 321 319 320 318 307 302 301 300 298 297 294 293 291 289 284 286 287 286 289 289 286 283 285 286 286 285 287 287 287 286 286 286 284 284 284 286 284 283 284 284 282 284 286 287 288 289 289 288 289 289 289
315 315 315 316 316 316 316 317 318 318 319 319 319 319 319 319 320 320 319 320 321 323 324 320 321 321 318 311 299 298 293 278 290 295 313 314 317 318 317 317 314 306 303 300 296 296 296 294 294 287 285 286 285 285 286 288 290 284 285 286 286 286 285 286 286 285 286 284 284 282 285 283 283 282 283 283 282 283 288 288 289 290 290 290 289 289 289 288
316 315 315 316 315 316 316 316 317 318 318 319 318 319 319 319 320 320 320 319 321 322 324 319 319 320 317 309 297 295 290 287 292 298 311 315 315 312 314 310 310 301 302 299 296 294 293 293 292 288 286 287 287 287 288 289 290 288 282 285 286 287 285 286 285 285 285 285 284 285 285 283 283 281 283 283 283 285 286 287 287 288 289 289 288 289 288 287
315 315 315 315 315 315 316 316 316 317 318 318 319 318 318 318 319 319 319 320 320 322 324 320 317 317 317 299 293 289 289 287 295 298 310 312 305 303 305 300 300 300 299 297 296 293 293 289 290 290 287 287 286 288 289 289 288 286 284 286 286 286 285 286 286 285 285 284 284 284 283 281 283 282 282 281 284 285 286 286 286 286 286 285 286 286 287 288
315 315 315 315 315 315 316 315 315 316 317 319 319 318 318 318 318 320 320 319 321 323 323 320 317 314 314 296 289 289 287 293 297 297 299 298 298 298 297 297 299 299 297 298 298 295 293 290 291 288 285 285 288 287 286 288 284 286 286 286 286 285 285 285 285 284 285 285 285 283 281 282 284 285 281 282 283 285 286 286 285 284 284 284 284 285 284 283
314 315 314 314 314 315 315 316 315 315 317 318 319 318 318 318 318 318 320 320 322 322 321 322 319 315 301 293 291 287 290 296 296 297 298 298 298 297 297 296 298 298 297 296 298 296 292 291 292 292 292 289 290 287 289 289 285 286 286 286 286 285 286 286 284 285 285 285 284 282 280 282 283 283 278 283 284 285 284 283 283 283 283 284 284 284 284 284
315 315 314 314 314 315 315 315 316 316 317 318 319 319 318 318 319 321 321 322 321 321 320 322 321 306 296 296 290 286 296 296 296 297 298 298 297 296 294 295 298 298 297 296 296 297 296 294 293 293 292 287 290 286 288 288 288 286 287 286 285 285 285 285 284 285 285 285 283 283 281 283 283 283 279 282 284 284 283 282 282 282 282 283 284 283 285 284
315 313 314 314 314 314 315 315 315 316 317 317 319 318 319 320 318 318 320 322 321 319 320 320 316 299 295 294 290 289 296 296 295 297 298 298 296 296 296 296 297 298 297 295 296 298 297 295 293 289 287 291 286 287 286 287 288 286 286 284 284 283 285 284 285 285 284 285 284 283 283 281 280 280 283 284 284 284 282 281 281 281 281 281 282 283 283 283
314 313 314 314 314 314 315 315 315 316 317 317 317 318 319 319 317 318 320 319 319 321 321 320 304 302 298 290 290 298 295 295 296 298 299 299 298 297 295 297 298 299 298 297 296 298 295 295 295 291 289 286 285 284 288 289 286 287 285 283 282 278 279 285 285 284 285 285 284 285 277 276 279 282 282 283 283 283 281 280 281 280 280 281 281 282 283 284
313 314 313 314 314 314 315 315 315 315 316 317 317 317 318 317 317 318 320 318 319 320 322 315 301 296 292 284 295 298 297 299 297 298 297 298 296 297 298 300 299 299 299 299 298 299 296 294 293 291 291 288 286 292 289 287 285 282 284 282 278 274 277 283 284 282 285 286 284 286 277 275 278 281 282 283 283 282 281 280 280 280 281 281 282 282 283 284
313 313 313 313 313 314 315 315 315 315 316 317 317 317 316 315 316 318 320 316 318 320 320 311 299 293 289 290 296 298 313 300 297 296 298 295 294 295 298 298 298 298 299 299 299 299 297 296 294 288 286 288 288 285 280 280 282 280 278 276 275 277 279 281 284 283 283 285 284 282 276 276 278 281 283 283 282 281 280 280 280 280 280 280 281 282 282 283
313 313 313 313 313 314 315 315 314 315 316 317 318 317 314 314 315 316 318 318 317 314 305 297 296 292 289 287 293 305 294 294 295 297 297 295 294 294 295 296 297 299 299 298 300 299 297 294 290 287 287 287 284 279 279 278 277 280 278 277 276 276 278 278 285 284 285 284 283 283 277 277 280 281 283 283 282 281 280 279 279 280 280 281 281 281 281 283
313 312 313 313 313 314 314 315 315 315 316 317 317 316 317 315 314 315 315 312 305 304 302 295 294 295 288 293 298 292 289 293 296 296 297 296 296 295 296 296 295 296 296 297 296 296 293 290 288 286 287 283 282 281 275 276 275 276 278 278 278 277 276 276 279 284 283 283 282 281 280 278 280 280 282 283 282 280 280 280 280 280 280 281 281 281 281 281
311 312 312 312 313 314 315 314 315 316 315 316 317 315 308 317 313 309 306 303 300 298 296 299 293 291 286 293 287 290 293 291 295 295 295 297 296 296 295 294 294 292 293 291 292 290 290 286 286 281 282 282 282 280 276 274 276 276 277 276 277 276 277 278 278 281 283 282 281 279 280 279 280 279 281 282 282 280 280 280 280 280 280 281 281 281 280 281
312 311 312 312 313 314 315 315 313 314 313 317 319 317 315 314 298 297 297 297 294 290 287 289 289 283 281 288 291 292 293 295 295 294 295 296 296 297 296 295 292 291 287 286 286 287 286 284 284 281 277 278 278 278 277 279 278 278 278 277 277 276 276 276 278 283 281 281 280 278 279 280 281 279 280 281 281 280 280 280 280 280 280 280 280 280 280 281
311 311 311 312 312 314 315 314 312 313 312 307 299 301 294 292 288 287 292 295 289 288 289 290 290 291 291 289 292 295 297 296 292 295 296 297 296 294 293 292 290 290 285 283 284 284 285 279 276 276 276 278 279 278 279 279 280 280 279 277 276 275 275 277 280 282 282 280 277 278 279 279 280 280 280 281 280 280 280 280 280 280 280 281 280 280 281 281
311 311 311 312 313 314 315 315 311 312 308 295 295 294 289 288 285 285 286 288 288 289 290 290 290 290 290 291 291 293 290 290 292 294 295 299 295 292 290 288 286 284 282 282 283 287 284 280 278 278 278 278 279 279 278 278 279 279 278 276 275 276 275 279 279 280 282 280 276 277 279 280 281 281 280 280 280 280 280 280 280 280 280 281 281 281 281 282
311 311 311 312 313 314 316 316 310 308 307 297 296 293 290 292 296 291 286 285 290 290 289 289 290 290 291 291 293 292 290 288 292 293 297 298 294 288 287 285 283 281 282 281 280 280 280 277 279 280 280 279 280 280 279 279 278 278 278 276 274 275 277 278 278 281 282 280 276 276 278 279 280 280 280 280 280 281 281 282 280 280 280 281 281 281 282 282
311 311 311 312 313 315 315 316 311 305 294 293 290 289 290 294 293 288 289 287 286 290 289 288 288 287 289 292 292 292 288 286 284 291 293 295 291 289 286 283 282 282 283 282 278 277 277 278 281 282 280 280 280 280 279 278 278 277 276 275 274 276 276 274 277 279 282 279 276 277 276 279 280 281 280 280 280 281 281 282 281 281 281 281 282 283 283 281
311 311 310 311 311 314 315 313 304 298 293 292 291 290 293 292 291 293 289 283 285 288 290 290 289 286 288 289 292 291 287 287 286 288 295 291 288 288 285 283 281 280 279 280 280 279 277 280 282 280 280 279 278 279 278 277 276 276 277 275 275 276 277 276 276 278 279 279 279 277 276 277 278 277 279 280 282 282 281 282 282 282 282 282 283 283 283 283
310 310 310 311 312 313 313 308 294 292 290 289 290 293 292 292 292 293 287 284 280 286 290 291 288 289 291 293 293 292 288 288 288 290 291 291 289 286 286 287 281 279 280 280 279 279 278 281 281 279 279 279 279 278 278 277 275 275 277 278 278 277 276 276 277 277 274 277 278 278 271 273 276 277 277 278 280 279 280 281 281 282 283 282 282 282 282 284
310 310 310 311 312 312 312 293 289 289 289 287 291 293 292 291 290 293 283 274 275 282 288 285 295 288 293 291 291 286 289 285 290 292 295 293 293 289 285 283 284 281 280 279 279 279 279 281 280 278 278 278 278 277 278 278 275 274 277 277 278 278 277 276 276 275 272 274 278 278 270 268 275 275 277 276 277 278 279 280 281 282 282 282 282 281 282 283
310 310 310 310 311 309 291 289 289 293 288 290 293 293 292 293 292 293 288 273 271 283 284 290 290 288 295 290 288 289 279 283 292 290 291 293 289 293 284 281 281 283 282 281 278 279 280 280 280 279 279 278 278 277 278 279 275 275 278 277 279 277 276 276 277 276 275 276 278 277 275 269 271 274 276 276 276 277 278 279 280 281 282 282 282 282 282 282
310 310 310 309 311 304 289 290 289 287 287 292 294 293 293 292 291 291 278 269 272 286 283 284 290 293 291 290 290 285 286 288 283 288 292 292 289 288 285 282 280 279 281 279 273 279 279 279 279 278 277 277 276 278 279 280 276 278 278 279 278 277 277 277 277 276 276 273 271 275 275 270 269 274 275 275 276 275 276 277 279 280 281 281 282 282 282 283
310 310 310 309 310 307 296 290 287 288 291 294 293 294 295 293 290 283 275 271 282 280 293 287 297 290 286 288 286 283 284 286 282 287 291 289 291 287 282 282 281 281 283 280 277 280 280 281 281 279 277 277 278 278 278 280 277 278 279 279 278 278 278 277 274 275 275 268 267 273 274 267 269 274 273 274 273 274 275 277 278 279 280 280 281 281 282 282
310 309 310 308 300 293 292 293 292 292 293 293 292 292 295 293 287 279 273 270 283 276 287 286 286 283 283 281 281 283 283 283 285 286 287 283 286 287 285 287 281 279 281 282 280 280 280 284 286 279 278 280 279 279 279 279 279 281 279 277 277 277 277 277 276 273 267 263 270 274 274 274 267 272 272 273 276 275 276 275 277 279 280 280 281 281 281 282
310 310 308 306 291 292 292 286 290 294 294 293 292 293 290 281 275 265 269 274 283 281 284 279 281 283 279 281 278 282 282 280 283 283 282 284 283 284 283 281 282 277 276 277 278 279 279 279 279 280 283 281 280 279 280 279 279 279 277 276 275 276 273 271 267 267 262 261 269 273 274 274 264 269 274 273 275 275 277 278 277 278 279 280 281 282 282 282
309 309 308 300 298 293 288 287 291 295 294 292 293 288 286 284 279 272 274 283 276 278 278 277 280 280 280 279 278 279 279 279 281 281 278 277 277 278 277 275 275 269 272 274 276 278 278 278 279 280 285 281 278 275 278 277 278 279 278 276 270 264 264 269 262 264 262 265 272 272 274 269 269 272 273 274 274 277 277 278 278 279 279 280 281 282 282 282
309 309 306 303 298 289 294 292 294 293 293 295 291 287 279 271 271 272 274 272 276 278 277 281 281 280 279 278 277 279 279 279 281 280 280 278 277 277 278 278 277 276 271 275 274 273 273 277 278 279 279 281 279 275 275 275 278 276 275 269 264 260 256 259 255 259 259 269 272 272 273 270 272 274 275 275 278 276 277 278 278 279 279 280 280 281 281 282
309 307 293 299 294 294 295 295 294 293 294 292 289 286 278 274 274 284 272 272 275 278 282 279 279 280 277 277 278 278 277 281 279 280 278 273 275 274 277 278 279 277 271 271 273 271 267 269 275 277 276 279 278 277 278 276 275 275 275 274 269 263 264 261 260 262 262 267 271 272 268 264 268 273 276 276 276 277 277 278 278 278 279 278 279 279 279 280
308 300 294 295 295 296 294 294 293 295 292 290 282 279 274 273 272 271 273 271 276 279 283 279 280 278 276 275 277 279 280 276 279 276 277 275 272 273 275 276 278 278 277 268 272 270 274 272 277 279 279 278 277 279 279 278 273 274 276 274 270 268 267 265 262 263 259 261 265 263 268 273 273 277 278 276 277 278 277 277 278 278 278 278 279 279 280 280
303 297 298 294 295 294 292 295 292 294 291 283 281 276 273 272 275 274 275 280 281 282 278 280 276 275 274 272 274 277 282 279 279 274 272 274 276 275 277 277 277 278 275 270 273 267 271 274 279 278 280 278 278 278 279 279 270 276 272 267 272 276 271 263 262 263 261 259 261 263 270 273 274 276 276 276 277 277 275 275 275 277 277 277 278 279 279 280
292 294 293 293 293 293 292 293 295 291 287 282 277 275 271 271 276 275 283 282 281 281 278 276 274 276 271 272 273 275 277 280 278 274 271 277 272 277 276 279 280 277 278 275 271 274 270 272 277 277 277 280 278 278 279 278 278 275 269 274 276 272 268 267 263 258 253 258 261 266 268 270 271 266 276 276 275 275 274 275 275 276 277 277 279 279 279 280
291 292 294 294 294 292 292 292 292 288 284 282 276 283 272 273 279 280 281 281 281 279 274 273 276 280 273 274 274 274 278 277 278 270 271 274 271 280 278 277 279 278 278 279 273 273 275 266 273 277 277 278 279 279 278 279 279 277 277 279 275 262 266 264 260 259 259 256 257 264 267 268 271 273 274 274 274 274 275 275 275 277 278 278 278 279 279 279
289 288 288 294 295 292 292 292 289 284 280 280 272 281 276 275 280 279 281 281 278 275 276 275 272 276 278 275 275 275 276 275 275 272 270 273 270 279 278 278 279 278 278 278 274 275 273 269 271 277 279 277 277 273 268 273 277 273 277 276 276 269 265 263 264 261 261 259 260 260 262 267 273 272 274 274 274 274 275 275 276 277 278 278 278 279 279 280
286 285 283 295 293 292 293 291 287 284 282 279 274 272 276 277 282 281 280 281 279 278 276 277 275 272 275 275 277 277 275 275 275 275 274 274 275 279 279 279 277 278 278 278 277 277 273 270 264 272 273 276 270 272 272 273 270 273 272 269 269 268 273 271 266 265 263 256 255 256 261 264 272 274 275 274 274 274 276 277 277 277 278 278 278 279 280 280
285 281 284 293 293 292 291 290 283 276 273 272 270 272 275 276 280 281 281 280 278 281 280 278 277 275 272 274 276 275 276 274 274 274 275 275 275 272 279 279 278 278 278 277 275 275 266 267 269 267 271 267 272 277 276 274 274 272 273 272 272 266 263 260 262 266 261 262 260 258 263 267 274 276 276 275 275 276 277 278 277 278 278 278 279 280 280 280
283 278 284 292 291 291 287 281 276 272 274 272 274 275 280 287 278 280 281 279 278 278 279 279 278 275 272 274 275 274 274 275 275 274 275 275 277 276 278 276 279 278 276 273 274 278 274 265 265 267 268 273 275 277 277 276 273 274 274 275 273 268 264 257 259 260 261 265 262 258 260 266 275 275 276 274 275 275 276 277 277 278 278 279 280 280 280 280
278 281 289 291 294 291 285 277 278 276 272 275 279 279 279 280 278 281 280 280 277 279 274 276 280 278 278 276 272 270 273 275 275 276 276 275 276 278 278 276 278 279 277 274 277 276 281 263 267 268 269 271 273 270 269 273 275 270 269 268 272 272 268 263 263 262 262 259 261 260 260 267 275 276 276 276 276 277 276 277 277 278 279 280 280 280 280 280
279 281 286 291 291 289 281 278 273 272 273 275 277 277 280 279 279 279 278 279 276 278 276 275 278 281 278 276 273 273 275 274 275 275 276 274 276 279 276 276 278 276 277 276 273 275 269 266 268 262 259 261 263 265 270 270 269 268 271 272 274 272 267 263 262 258 264 259 264 262 260 264 274 277 276 276 277 278 278 279 278 278 279 280 280 280 280 280
280 282 283 287 292 287 281 276 275 273 275 273 273 274 276 277 280 280 279 280 280 277 278 278 279 279 277 277 274 274 271 275 272 275 276 276 277 279 277 275 277 278 280 282 284 279 270 268 266 265 263 265 264 265 265 266 265 272 273 274 273 272 267 268 266 258 261 261 264 259 261 270 274 275 277 278 276 277 279 279 279 279 278 279 279 279 280 280
278 281 279 280 285 284 282 280 279 276 273 271 273 275 275 275 279 279 280 280 280 280 279 280 278 277 277 276 274 272 273 274 273 271 273 272 274 277 276 275 277 277 283 285 282 275 266 268 268 265 263 265 269 271 270 276 270 267 270 270 273 273 272 269 264 259 263 259 263 266 268 272 274 276 276 277 277 277 278 279 279 279 279 279 279 279 279 279
276 275 276 278 277 282 275 277 276 277 277 276 274 275 275 274 276 277 281 277 281 279 279 279 276 278 276 275 273 275 275 274 273 272 272 272 273 275 273 275 275 282 284 283 281 271 265 266 268 268 268 272 272 270 271 276 270 272 271 271 273 273 271 270 266 265 267 262 264 268 271 268 273 276 276 277 278 278 278 279 279 279 279 280 279 278 281 279
281 277 275 278 281 279 277 278 276 277 278 278 276 276 274 274 276 274 277 280 280 280 277 279 278 278 277 277 276 273 274 274 271 272 276 273 274 276 274 276 276 280 281 274 276 273 267 267 269 269 267 271 272 272 274 270 272 272 272 271 270 272 271 269 269 271 269 265 268 270 270 270 274 276 278 278 278 278 278 279 279 279 278 278 278 278 278 279
281 276 275 280 279 274 276 278 276 277 277 274 278 276 275 274 275 275 276 277 278 277 279 275 277 277 276 278 278 274 275 273 272 273 273 271 272 273 271 272 276 275 271 273 271 270 269 264 266 271 269 271 273 273 273 271 269 270 272 272 273 271 271 272 271 272 271 271 273 273 273 273 275 277 278 278 279 279 279 279 278 277 278 278 278 278 279 279
280 278 277 276 275 272 275 276 277 276 277 280 276 276 276 275 276 278 279 276 275 277 280 278 279 278 277 276 277 276 276 278 277 275 277 274 271 275 271 275 273 274 273 271 272 271 273 266 275 266 266 267 271 270 270 271 269 268 272 272 272 272 272 272 272 272 272 271 273 273 272 272 277 278 278 279 278 278 277 277 278 278 278 278 278 279 279 279
284 284 280 280 275 275 278 276 278 276 276 277 275 278 279 277 277 278 279 280 279 277 278 278 277 278 277 277 278 278 279 278 279 281 279 276 275 277 275 273 276 270 273 270 270 268 271 266 264 262 266 265 262 266 268 265 266 265 269 270 270 267 264 268 270 272 271 271 271 270 269 271 276 276 277 277 278 278 278 278 278 278 278 278 278 279 279 279
283 285 281 277 276 282 278 276 276 278 278 278 278 278 280 279 279 279 278 280 280 281 280 278 278 278 277 277 278 278 280 278 279 280 278 279 280 278 278 277 277 275 271 270 270 269 266 265 266 262 265 261 261 263 265 264 263 266 266 269 272 270 270 271 273 274 274 274 270 267 271 277 276 277 277 278 278 278 278 278 278 278 278 278 279 279 279 279
Wind_Speed
14 14 14 14 14 14 15 15 15 16 15 16 16 16 16 16 15 15 15 14 14 13 11 10 9 11 11 9 10 9 3 5 16 19 26 16 21 27 27 28 27 26 26 7 16 12 7 10 10 8 8 7 6 5 4 8 4 7 6 5 7 1 4 1 2 3 2 5 1 2 2 11 5 2 2 2 12 9 7 10 5 10 11 6 4 5 5 5
15 15 15 15 15 15 15 16 16 16 16 16 16 16 16 16 15 15 14 14 14 14 14 10 8 8 11 11 9 8 4 10 16 18 18 19 28 27 27 27 25 25 19 10 9 7 8 6 6 12 8 7 4 5 3 3 5 7 4 5 7 1 2 1 1 4 2 4 3 2 2 2 5 3 0 6 4 3 8 7 5 10 7 7 7 6 7 7
16 16 15 15 15 15 15 16 15 16 16 16 16 15 16 15 15 15 14 14 14 13 15 14 10 8 10 10 5 7 2 4 14 25 15 26 28 27 27 26 25 23 9 2 3 6 6 4 3 12 5 7 10 4 7 5 4 7 6 9 6 2 3 8 7 5 7 8 7 6 4 7 1 1 2 5 5 6 6 4 5 6 7 6 6 7 8 9
15 15 15 15 15 15 15 15 16 16 16 16 15 15 15 15 15 15 14 14 13 14 13 12 12 11 13 8 9 5 3 3 15 7 12 26 29 27 26 25 24 19 7 5 5 5 1 6 13 9 5 11 5 8 14 8 5 4 8 3 1 1 4 6 8 7 6 6 5 5 3 6 6 4 2 6 8 5 2 1 1 7 7 6 6 7 6 7
15 15 15 15 15 15 15 15 15 16 16 16 15 14 14 14 15 15 14 15 15 13 11 13 11 10 12 10 7 3 4 8 6 8 15 27 27 26 25 23 23 13 6 9 14 10 13 7 6 9 8 3 7 6 7 9 5 6 4 1 2 2 10 2 5 6 5 5 8 4 7 3 1 6 7 2 6 2 0 4 7 7 7 7 7 7 6 6
15 14 14 14 15 15 15 16 16 16 16 15 15 15 14 14 14 14 14 14 15 15 13 17 14 7 7 19 9 3 5 5 6 10 17 25 26 25 23 20 20 12 15 15 7 11 15 11 16 7 5 9 8 12 4 3 2 11 6 6 8 4 6 2 3 3 5 4 5 2 2 2 4 4 4 8 5 2 5 6 6 6 8 8 8 8 7 6
15 15 15 15 15 15 15 16 16 16 16 15 15 15 14 13 12 12 12 13 13 14 14 15 14 11 1 10 6 17 16 4 2 12 18 22 25 22 21 14 18 14 17 14 12 8 10 13 12 5 6 11 10 12 7 14 11 14 4 3 8 9 8 4 5 7 6 9 4 3 4 6 1 8 3 7 3 5 4 4 4 5 6 6 6 4 6 6
16 16 15 15 15 15 15 15 15 15 14 14 14 14 13 13 13 12 12 11 12 12 14 18 15 14 3 1 4 9 12 6 12 10 15 21 19 18 15 9 16 10 14 10 7 6 7 8 9 2 11 10 2 8 5 18 10 9 7 3 2 5 4 6 8 9 9 7 4 7 7 1 4 4 3 3 4 5 6 6 6 7 6 5 5 4 4 4
16 15 15 15 14 14 14 14 14 14 13 13 12 12 12 12 13 12 12 10 9 9 11 16 19 16 6 4 1 9 11 5 9 11 12 15 16 12 9 12 13 12 7 11 10 6 6 3 6 1 4 4 1 7 3 9 7 3 5 3 3 3 3 5 7 6 7 3 6 12 7 5 9 8 5 4 3 4 5 6 5 6 6 5 5 5 5 4
15 15 14 14 14 14 14 14 14 13 13 13 12 11 11 12 11 11 10 11 9 8 10 11 13 11 7 3 5 19 3 5 6 8 12 12 14 14 14 9 11 8 9 10 12 10 6 4 11 9 15 10 3 6 4 11 5 3 7 5 8 4 4 2 5 1 1 3 1 7 3 4 2 4 0 1 3 3 5 5 4 6 5 4 4 4 4 5
15 15 14 14 14 14 14 14 14 14 13 12 12 12 11 12 11 10 10 9 10 9 8 7 6 10 11 9 18 10 2 7 3 7 11 12 14 13 10 10 8 7 9 8 8 3 2 2 4 5 5 3 7 6 8 6 8 6 9 7 6 5 5 3 4 1 1 2 3 11 4 1 3 1 3 5 4 5 5 4 3 3 3 3 3 3 2 3
16 15 15 14 14 13 14 14 14 13 13 13 12 12 11 10 12 12 10 9 7 9 9 6 4 3 4 17 14 3 4 5 5 6 7 10 11 9 6 3 4 4 5 7 9 8 4 1 3 2 6 2 12 6 6 4 6 6 5 8 1 4 5 6 3 2 1 0 3 5 4 1 3 0 2 9 6 6 6 5 4 4 4 4 3 3 2 3
17 16 16 15 14 14 13 13 14 13 13 12 12 12 10 10 11 11 10 9 8 9 8 6 6 3 1 17 1 4 4 4 5 9 11 12 12 1 2 0 5 3 4 3 5 6 6 8 9 14 2 5 4 2 5 3 4 3 3 7 1 3 4 6 1 2 3 1 4 3 1 4 2 1 5 5 8 6 6 5 4 4 4 4 4 4 3 2
18 17 17 16 15 14 13 13 13 13 12 11 11 11 10 10 11 9 7 6 7 7 4 8 4 7 8 3 3 4 4 1 5 14 16 12 13 12 11 15 7 5 3 5 2 6 8 5 11 7 3 6 5 1 7 1 4 3 0 5 2 3 1 3 2 3 3 1 3 1 0 6 3 3 5 4 6 8 6 5 4 4 3 3 3 4 4 2
18 17 18 17 16 15 14 13 13 13 12 11 10 11 11 12 11 8 7 6 13 7 5 4 6 3 8 1 4 7 3 1 12 10 7 13 9 10 15 15 11 7 2 6 2 4 5 10 15 8 4 3 3 3 3 4 4 4 2 4 3 6 1 3 3 4 2 2 3 3 1 4 2 7 7 5 6 6 6 4 4 4 4 3 3 3 3 3
18 18 18 18 16 15 15 14 14 13 12 9 8 9 10 13 12 7 9 4 8 9 1 7 8 8 9 5 2 5 6 11 13 9 5 5 3 2 8 9 6 7 8 6 2 4 7 9 12 3 3 6 9 4 5 5 5 5 5 0 2 3 1 2 0 1 1 2 2 1 3 3 3 4 7 5 6 6 6 5 4 4 4 4 4 4 4 2
18 18 17 17 16 16 15 14 15 13 10 9 8 6 7 10 14 5 6 9 6 6 9 4 4 0 8 3 2 6 5 4 4 6 12 5 0 3 7 7 5 9 6 3 11 8 8 9 3 4 5 7 2 1 1 8 5 6 4 3 1 3 2 2 5 4 6 4 3 3 0 3 2 2 7 5 6 6 5 5 4 4 4 4 4 4 4 4
18 17 17 17 17 15 14 15 16 13 11 8 4 4 3 8 16 20 11 6 2 6 3 4 2 3 2 5 5 9 6 6 10 9 6 6 2 7 5 4 4 4 4 4 8 11 5 6 6 4 5 11 13 11 7 1 1 3 6 5 4 3 1 3 4 5 9 4 4 2 0 5 5 2 6 7 4 5 5 4 4 4 4 4 4 4 4 4
18 18 17 17 16 15 14 15 16 14 13 3 3 1 3 5 2 11 14 9 9 9 10 10 10 7 1 8 7 6 7 5 6 5 14 11 5 2 2 2 3 7 3 6 4 6 6 5 1 8 12 11 10 5 3 1 2 2 2 2 0 4 4 5 3 2 7 9 6 3 5 9 9 1 4 4 4 5 3 1 3 3 4 4 4 4 4 5
18 18 18 17 17 15 13 14 17 14 12 4 3 3 3 2 7 5 7 13 12 6 6 3 0 1 3 6 9 8 7 5 6 14 16 8 5 7 7 4 3 7 7 5 6 7 3 13 11 8 7 8 7 5 4 4 3 1 1 2 2 4 4 2 1 3 7 5 1 3 7 6 8 6 6 4 4 3 3 2 4 4 4 5 5 5 7 7
18 18 17 16 15 14 12 11 17 12 10 5 5 6 1 1 2 2 2 4 1 3 3 1 2 1 0 3 5 8 7 5 2 12 11 8 2 5 10 8 10 13 8 3 4 3 1 16 9 5 4 4 4 5 3 2 2 2 3 4 4 5 7 6 3 2 6 4 3 4 6 9 12 11 2 5 5 4 4 3 3 4 5 5 6 6 7 6
18 18 17 16 14 14 10 10 16 11 9 6 10 8 2 2 0 1 3 4 3 2 5 1 1 3 3 3 2 2 3 3 16 18 11 12 11 7 5 10 9 11 7 3 3 7 15 9 6 5 4 2 1 6 5 5 4 6 5 1 3 5 6 6 1 6 5 2 3 4 6 10 12 11 7 4 3 0 3 5 2 4 5 5 4 5 5 2
19 19 17 16 15 11 9 7 8 16 6 9 6 4 2 0 0 2 1 7 3 1 3 2 4 2 4 3 1 3 5 10 4 12 11 8 7 9 2 7 9 7 13 9 8 3 9 7 8 7 3 1 5 6 6 5 6 6 6 7 3 3 6 4 3 5 11 1 2 3 3 8 7 7 9 5 3 1 3 4 4 2 4 5 6 6 6 4
19 19 18 16 17 12 6 3 5 10 9 6 7 2 0 1 1 1 1 2 3 1 1 0 1 1 2 4 3 4 3 3 2 14 9 5 5 2 4 4 7 6 6 9 12 13 5 4 6 4 5 4 4 9 12 10 7 3 4 4 2 3 2 2 6 7 7 2 2 2 4 7 12 11 9 8 7 9 7 7 9 7 4 4 5 5 4 7
19 19 19 18 16 14 2 5 8 2 2 5 3 1 0 1 1 1 3 1 4 2 3 1 2 1 2 1 2 0 0 0 3 3 3 4 7 3 1 1 4 3 2 1 6 11 7 5 3 4 7 7 7 8 7 4 7 6 0 2 1 1 3 4 7 6 5 1 3 4 4 5 6 6 7 5 8 7 4 8 8 8 9 8 8 5 2 1
19 19 19 19 18 13 2 4 2 2 5 3 0 1 1 2 2 2 3 4 2 4 3 6 1 3 2 4 4 1 1 4 1 3 1 2 3 1 1 4 2 3 1 2 6 4 2 3 6 2 4 6 6 3 1 4 4 2 3 3 2 0 1 3 6 2 3 4 4 3 4 0 2 6 6 5 5 7 5 8 8 9 10 9 8 6 2 1
19 18 18 19 19 10 3 1 0 1 1 1 0 2 2 0 1 1 1 4 4 1 3 3 1 1 2 3 2 0 4 5 5 2 7 6 3 1 6 5 3 2 1 1 3 4 5 9 9 8 8 6 6 9 3 3 3 2 1 4 0 4 4 3 0 1 1 1 3 6 4 4 0 4 3 7 4 7 8 9 9 8 9 10 8 7 5 3
19 18 17 17 12 13 3 3 1 3 1 0 0 1 0 1 2 1 4 3 2 2 2 4 1 3 4 5 10 8 3 6 3 6 5 7 2 4 8 2 5 4 3 2 7 3 3 5 6 7 6 7 7 3 6 1 0 4 1 1 6 5 3 3 1 1 0 2 2 8 6 4 0 1 4 4 6 6 5 5 5 7 7 8 8 8 6 4
18 17 18 16 6 10 6 4 4 2 1 1 1 1 2 1 1 4 4 3 1 2 3 0 2 2 7 5 7 3 2 5 3 3 8 2 12 2 6 3 2 5 10 7 6 1 1 1 2 1 5 8 5 5 4 2 4 5 3 2 1 2 2 4 2 2 1 3 2 4 4 2 2 1 5 3 3 3 3 4 5 5 5 5 5 5 4 4
17 16 16 17 4 6 5 3 4 1 0 0 1 1 1 1 2 2 2 2 0 1 1 3 3 5 4 2 2 7 7 4 1 5 5 4 10 8 3 1 1 4 6 7 7 3 1 3 3 5 4 3 5 6 1 2 4 8 1 3 4 5 3 2 4 1 2 4 1 1 2 2 2 1 4 0 1 1 2 3 3 5 6 5 4 3 3 4
15 14 13 11 6 1 1 3 2 1 0 1 2 2 1 4 2 5 2 1 1 1 1 3 1 4 5 7 4 5 2 3 7 5 6 4 15 9 7 2 6 5 6 3 6 6 3 3 3 2 1 5 1 4 1 1 2 6 4 2 2 1 5 2 4 3 3 2 1 1 2 1 2 2 3 3 2 2 2 1 3 4 5 4 4 4 4 4
14 11 8 5 1 1 3 2 1 1 0 2 1 2 2 1 7 5 2 3 1 3 2 3 1 1 4 1 3 6 4 5 3 5 4 3 6 12 9 6 5 3 6 8 7 4 4 4 2 6 2 7 5 3 7 5 7 12 10 9 6 3 5 1 8 3 1 1 0 1 3 2 1 3 3 2 3 2 4 4 2 3 4 4 4 5 4 4
13 8 4 2 3 2 0 1 2 1 2 1 1 2 2 4 1 2 1 2 0 1 1 2 3 4 2 1 4 3 2 4 4 4 1 1 5 3 4 9 4 1 2 2 2 7 2 2 6 7 4 4 5 7 8 7 9 9 7 2 5 4 3 0 3 2 3 6 3 1 3 1 1 3 4 3 1 5 4 5 5 3 4 4 5 5 5 6
12 5 1 1 1 0 0 1 2 2 1 1 1 4 6 5 1 1 1 1 1 2 2 1 4 1 4 4 2 2 4 1 3 4 5 2 7 6 8 7 9 8 4 1 7 2 6 4 6 5 3 4 3 2 0 3 5 3 2 2 3 5 1 2 0 1 2 6 8 5 0 2 1 3 4 6 2 2 3 4 4 4 5 5 6 5 4 4
10 3 1 1 1 1 1 1 2 2 2 2 8 6 3 1 1 2 1 1 1 1 0 0 1 2 2 2 3 1 0 1 2 2 8 6 5 2 4 6 7 2 0 2 1 1 1 3 4 2 3 1 3 2 0 0 0 2 2 4 6 2 2 0 2 1 2 3 6 3 1 1 2 1 1 0 1 1 2 3 3 5 5 5 5 5 5 5
3 1 0 1 1 0 2 1 3 1 2 5 7 6 2 2 0 1 1 1 0 0 1 1 4 2 1 2 1 3 4 1 3 2 3 3 1 2 2 1 4 4 4 3 1 2 2 1 0 6 2 1 1 2 3 0 3 4 4 3 3 3 3 1 2 1 1 3 3 1 6 2 3 1 1 1 0 3 3 3 3 5 5 5 5 5 5 6
3 3 1 2 2 0 2 3 3 2 4 6 6 1 1 0 0 1 3 1 0 1 1 1 2 2 2 2 2 6 2 1 1 2 2 0 2 3 2 1 1 2 1 2 1 1 1 6 3 2 2 1 1 1 2 2 0 1 4 2 1 2 4 2 0 4 4 1 3 3 3 4 3 2 0 1 3 6 4 5 5 5 5 5 5 5 6 7
2 1 0 1 1 1 2 3 2 4 7 8 5 3 0 2 0 0 0 0 0 1 2 2 0 0 1 0 2 3 6 3 6 4 0 1 1 0 1 1 2 3 3 2 2 2 1 2 1 1 3 6 3 1 1 1 1 6 1 1 1 2 4 4 2 4 4 3 4 6 3 5 4 3 1 5 4 3 5 4 3 4 6 6 6 7 7 7
1 1 1 1 0 1 2 3 5 2 4 10 1 3 0 0 0 0 2 3 0 1 1 0 1 1 1 1 1 1 3 3 2 2 1 2 2 1 1 0 1 2 4 2 2 1 2 0 4 1 0 3 2 3 1 6 5 1 2 4 1 3 2 2 0 2 4 4 6 5 4 1 3 2 7 5 4 4 4 3 3 5 6 6 6 6 7 7
3 1 2 0 0 1 4 2 7 10 8 6 2 1 1 1 0 1 1 1 0 1 0 1 0 1 1 0 0 0 2 2 2 1 2 2 1 2 1 3 1 5 5 3 2 1 1 1 1 3 3 1 1 3 1 1 1 5 7 4 4 1 2 2 0 1 2 2 2 1 6 5 6 4 4 5 4 4 2 1 3 5 6 7 7 7 7 8
1 3 1 1 3 1 3 13 13 8 7 0 2 4 0 1 1 0 1 1 0 2 1 1 2 1 2 1 1 1 1 2 2 1 1 1 1 1 0 1 1 3 3 2 6 3 1 2 2 5 6 2 2 0 1 2 1 1 1 2 4 1 3 2 4 2 2 1 2 0 8 7 9 2 4 3 6 2 2 0 4 6 7 8 8 8 8 8
2 1 2 2 4 3 5 9 5 1 5 4 1 1 1 2 2 0 0 0 1 1 2 3 1 3 1 2 0 1 0 1 1 1 0 0 1 1 1 2 1 1 1 1 0 1 1 1 2 5 2 3 2 0 2 2 2 1 1 0 3 1 4 3 0 3 2 1 2 1 0 9 6 3 3 2 1 3 3 1 5 6 7 7 8 8 9 8
3 0 3 3 5 3 11 7 2 5 4 1 3 2 2 1 2 2 0 1 0 1 2 2 1 2 1 0 1 1 0 1 1 0 0 0 0 1 2 1 3 2 1 1 0 1 5 2 4 4 4 4 3 2 2 3 0 1 0 0 0 1 2 5 3 3 2 3 1 1 2 9 6 1 3 2 2 3 4 3 4 7 7 8 9 9 9 9
1 1 3 2 4 3 4 1 1 1 0 1 2 0 2 1 1 1 0 0 1 0 1 1 0 0 2 1 2 1 1 1 1 1 0 1 1 2 3 3 2 0 0 0 2 2 1 2 3 3 4 6 3 2 1 1 1 1 1 1 0 3 4 2 5 2 0 5 6 6 5 6 1 1 1 3 6 8 7 8 5 7 9 8 9 9 8 8
1 1 1 7 9 6 2 2 8 5 1 3 1 3 0 1 1 0 1 0 0 1 1 0 1 2 2 1 2 1 1 1 0 0 1 2 2 0 3 5 2 1 1 2 2 0 1 2 1 1 3 6 6 7 5 5 2 2 0 0 1 4 5 1 0 1 1 2 4 2 7 10 7 4 6 7 5 7 9 8 8 6 7 9 8 8 9 9
1 1 4 5 8 7 6 2 6 7 7 3 4 0 1 1 1 2 2 0 1 0 0 2 1 3 2 1 1 0 1 1 1 1 1 1 1 1 1 4 3 0 1 4 4 1 1 0 1 3 4 5 7 6 2 1 3 2 2 3 3 3 1 3 4 3 5 3 5 10 8 10 15 15 9 10 7 8 10 10 10 9 8 8 7 8 8 8
1 2 1 0 4 8 3 3 3 3 5 3 2 3 1 1 0 1 2 0 0 1 1 1 1 1 1 2 1 2 0 0 1 1 1 2 1 1 2 3 3 1 3 0 4 3 2 1 4 2 5 7 5 7 3 1 5 7 7 5 5 5 5 6 6 6 5 4 7 6 6 4 12 9 9 10 10 10 10 11 10 9 8 9 9 8 9 8
1 1 1 1 1 1 2 3 2 5 3 2 0 1 3 2 0 1 1 0 1 1 1 1 0 2 4 3 4 2 1 0 0 1 0 1 1 0 1 4 2 5 3 0 2 1 1 0 0 1 5 7 9 10 6 2 5 8 7 7 5 6 5 8 8 7 7 5 11 4 2 3 14 13 14 11 10 11 12 13 11 8 8 8 8 7 8 8
3 1 1 1 1 0 1 1 3 6 5 2 2 2 2 3 4 3 3 0 1 1 0 1 3 5 4 1 1 1 3 1 1 1 2 1 2 1 0 1 0 4 2 1 2 1 2 1 1 1 6 7 11 10 7 6 3 4 9 9 8 7 11 12 10 7 10 12 14 14 14 17 19 17 14 13 11 10 11 8 8 8 9 8 7 8 9 9
0 1 0 4 5 3 0 1 2 3 4 0 2 2 4 6 4 1 0 2 1 1 0 1 3 1 3 2 1 2 4 1 2 1 3 3 0 1 1 3 2 1 1 0 0 2 1 2 5 1 3 7 8 4 0 2 2 6 9 8 7 7 8 10 6 6 7 10 16 18 15 17 18 8 7 9 7 6 8 9 10 9 8 7 8 9 9 9
1 1 4 6 3 1 1 2 1 2 2 0 2 1 2 3 3 4 1 0 0 3 3 3 2 4 1 1 1 1 2 2 2 1 6 4 0 4 2 1 5 4 0 0 0 2 1 2 2 2 3 7 5 2 3 3 4 6 13 14 7 5 6 5 5 7 7 11 6 3 6 11 11 3 5 8 8 8 10 10 9 8 7 7 8 10 9 9
2 0 3 3 3 1 0 0 1 1 1 2 1 2 1 5 3 5 2 1 1 0 4 3 3 6 1 0 5 4 2 2 1 2 2 1 4 3 2 3 5 7 4 3 1 1 2 2 1 2 3 5 6 1 6 8 4 2 5 8 8 4 3 1 4 3 10 3 1 4 10 6 3 4 8 11 10 10 9 9 8 7 7 7 9 9 9 8
Wind_Direction
12 9 5 1 359 356 355 353 351 352 349 349 349 350 349 347 343 339 338 335 332 326 322 317 310 307 300 279 256 249 243 48 24 24 27 359 343 337 339 339 337 333 338 350 16 35 14 22 21 4 34 53 323 38 314 33 359 49 52 104 62 126 60 269 178 189 119 118 156 33 60 116 117 216 189 69 49 76 75 66 54 59 59 75 88 83 83 72
10 8 4 1 358 356 353 352 351 350 349 348 349 349 347 344 340 338 334 330 329 326 322 317 307 290 291 279 247 226 179 33 32 24 22 342 344 340 339 336 336 339 338 25 25 26 53 16 26 52 36 37 322 31 351 21 28 61 94 57 105 45 334 349 38 63 78 77 83 82 23 63 119 142 145 72 25 19 60 50 62 77 71 75 73 69 70 68
9 7 3 359 358 355 352 351 350 350 349 348 349 347 345 342 339 335 333 331 326 325 323 322 323 321 279 304 184 165 141 14 20 20 342 343 341 338 336 338 336 340 345 354 8 69 64 81 17 71 22 66 10 25 36 353 52 25 93 74 64 130 79 48 64 76 89 117 92 84 50 70 323 67 34 96 104 53 63 100 61 68 100 90 84 74 69 68
7 4 1 357 355 353 351 349 349 349 348 347 346 344 341 340 337 335 333 329 331 327 327 322 332 353 350 34 112 114 96 25 34 330 333 338 337 335 336 335 339 338 329 46 66 64 130 66 53 59 63 61 327 48 41 337 74 347 62 78 132 265 71 359 59 68 73 88 96 81 80 57 15 38 81 151 79 30 22 28 124 132 117 103 91 85 73 74
5 2 358 356 353 351 349 348 347 347 346 346 344 342 341 340 338 337 336 337 331 331 324 336 338 4 14 67 95 90 98 51 348 341 322 335 334 334 334 336 339 333 16 33 40 34 53 47 79 50 61 43 357 36 24 358 60 99 81 69 102 49 72 24 63 49 86 60 85 63 64 90 5 36 16 13 108 116 316 70 93 107 111 107 104 96 95 89
3 0 355 353 352 348 347 347 348 346 345 344 343 341 343 341 341 337 337 336 334 331 343 355 352 6 46 52 54 78 91 61 327 322 320 329 332 334 333 338 339 356 31 37 42 40 49 20 62 30 32 55 24 64 316 29 286 86 15 40 44 61 106 335 32 22 71 60 51 60 52 69 67 79 20 64 72 97 83 106 110 104 104 106 106 112 108 107
0 359 356 353 351 349 347 347 346 345 343 342 343 342 340 340 335 333 332 335 335 332 337 355 6 1 199 62 69 73 83 137 312 298 322 329 330 331 334 343 355 16 33 32 26 56 55 61 67 86 96 75 35 73 50 63 47 90 90 73 53 73 81 81 78 64 59 77 62 100 77 64 23 70 360 68 44 87 95 98 91 91 94 98 107 115 121 126
1 359 357 353 350 347 345 345 344 344 341 339 339 342 341 340 339 336 335 337 335 338 336 353 4 19 17 50 30 50 57 3 324 309 323 328 330 334 334 3 8 7 37 39 22 35 68 53 79 90 61 85 211 96 78 71 32 79 87 85 121 61 81 86 94 83 83 81 109 71 63 18 84 118 96 72 106 103 111 107 100 102 106 108 118 134 140 129
1 358 356 352 349 345 344 345 345 343 341 339 337 338 340 337 340 336 335 327 339 336 345 355 357 4 60 90 187 52 21 301 306 310 326 329 326 329 16 6 349 22 21 26 25 25 68 36 80 180 154 90 3 101 308 95 31 25 108 84 67 84 74 85 65 81 91 80 80 74 87 111 121 109 67 159 143 144 128 112 116 113 116 130 138 140 131 136
0 357 353 352 347 344 343 342 344 343 342 339 336 335 336 337 333 335 333 333 332 353 0 1 5 326 17 86 65 61 290 316 310 326 324 329 329 353 6 13 4 16 24 9 24 21 46 100 108 104 113 76 112 58 94 82 151 148 108 101 109 132 110 11 117 137 115 104 60 102 138 159 223 43 208 219 172 131 109 113 109 121 137 147 148 146 140 133
358 356 351 350 347 346 342 345 344 344 342 339 336 332 331 333 330 329 328 325 332 338 3 1 342 26 44 49 60 70 283 3 324 336 328 337 350 358 339 353 351 22 15 11 37 34 297 216 186 143 45 145 95 43 72 141 122 110 123 94 70 84 82 104 81 138 67 34 112 123 165 249 293 78 193 161 193 140 127 127 136 132 146 160 160 151 177 131
357 353 352 347 348 344 343 343 344 343 342 338 335 329 324 319 334 338 330 320 322 338 349 18 32 105 82 63 59 68 271 307 325 330 331 347 344 308 262 10 9 40 40 19 3 3 348 36 87 61 137 222 81 105 62 130 108 150 121 89 59 18 54 8 53 331 107 177 159 139 82 13 355 39 175 164 159 154 146 165 175 163 169 163 161 157 144 166
356 352 352 348 346 342 341 343 343 341 335 334 330 323 317 317 332 335 330 337 336 339 342 32 51 73 156 52 6 238 287 303 336 321 349 8 327 228 221 47 34 58 48 51 9 342 6 39 63 71 16 83 143 58 170 116 135 107 23 125 66 6 28 344 325 347 86 201 165 196 17 280 280 274 179 171 154 146 143 168 180 165 155 154 137 135 123 118
355 353 351 348 345 339 337 336 339 336 332 330 327 319 316 326 333 335 338 320 325 343 46 56 77 58 63 114 261 256 276 314 324 4 1 335 12 330 352 355 3 29 10 64 42 16 33 36 68 90 103 58 76 43 84 17 28 112 216 59 56 62 322 318 27 320 96 187 119 89 113 288 271 227 212 191 158 153 168 181 182 166 161 145 139 126 141 185
355 352 350 347 342 339 335 334 335 333 328 326 322 317 325 344 353 1 4 353 2 9 136 49 48 75 46 152 264 290 322 35 11 355 340 0 358 344 352 334 347 359 338 55 53 12 36 58 54 36 26 332 31 46 13 26 12 24 48 337 335 83 288 302 336 37 65 329 64 83 103 232 236 208 211 191 160 155 169 184 180 173 163 159 150 131 137 172
354 352 349 347 342 338 334 329 333 332 328 324 319 314 320 1 6 17 34 38 360 12 150 54 352 87 117 44 316 7 35 13 344 320 323 12 2 341 297 290 281 4 32 27 37 47 31 64 74 37 21 12 51 65 60 25 348 3 84 183 12 35 337 8 75 42 348 261 349 52 246 319 321 217 208 194 155 162 165 182 180 177 174 166 165 163 159 150
353 351 348 344 341 338 332 330 332 328 328 320 315 301 310 359 17 31 52 40 6 2 60 17 348 68 70 260 349 22 345 303 315 336 343 3 107 302 328 8 10 341 354 8 26 38 3 53 314 33 36 80 311 106 48 27 351 345 18 43 340 35 342 7 308 18 4 50 314 357 195 243 242 245 207 205 161 157 166 181 185 186 181 183 176 168 172 174
352 350 348 344 343 338 333 335 337 333 326 315 278 287 327 339 18 39 358 8 23 75 101 110 116 37 13 21 23 322 317 300 336 306 277 318 63 358 36 15 323 348 34 9 2 37 341 56 26 106 24 20 25 16 76 104 252 310 345 10 342 339 38 28 18 322 13 353 337 339 198 288 291 267 204 205 161 149 174 173 188 189 191 193 184 184 190 188
350 351 347 345 342 339 336 339 346 342 339 344 85 89 356 13 18 53 32 333 38 354 26 343 8 66 60 313 284 282 307 296 293 10 341 357 334 24 358 39 48 32 7 54 341 45 358 71 61 49 27 5 3 20 109 225 158 217 208 220 56 18 325 11 292 345 31 336 337 22 338 322 322 305 229 219 174 145 157 145 174 216 208 201 198 199 203 203
351 348 347 343 342 338 336 345 351 352 0 78 17 43 14 14 7 347 351 33 61 97 137 278 318 268 343 351 338 291 256 7 14 351 360 0 343 346 40 39 340 65 50 44 338 33 343 65 36 27 340 335 328 330 259 255 199 209 109 91 61 4 308 277 314 23 5 2 315 320 330 323 322 317 222 187 120 118 127 150 197 204 209 209 211 211 212 212
349 349 344 342 338 335 335 341 358 351 19 83 71 62 83 166 76 68 348 57 174 82 80 354 95 88 82 276 304 358 12 326 67 5 1 299 119 44 350 12 5 40 6 307 94 322 38 60 14 343 295 299 298 315 355 69 47 162 132 94 55 37 326 307 278 19 28 49 291 5 352 359 351 349 344 107 114 187 178 206 221 223 220 216 209 219 219 226
346 347 345 338 336 335 334 345 1 13 28 58 69 88 117 189 78 77 117 58 13 15 38 348 8 23 325 230 266 146 137 349 3 358 352 24 348 68 328 64 48 48 330 358 19 19 46 48 330 310 296 238 353 15 24 67 48 34 78 135 91 353 273 293 325 334 13 41 247 356 21 9 3 13 33 85 116 280 215 196 221 202 231 241 245 238 228 219
346 344 344 338 334 327 325 354 24 18 33 27 54 69 95 262 125 185 88 120 91 316 48 17 22 358 346 290 317 78 42 46 307 349 347 6 6 62 360 45 36 39 36 32 79 32 50 7 324 318 326 75 15 20 34 45 59 43 25 44 29 290 33 318 305 353 334 75 259 2 36 29 19 32 47 39 34 353 8 17 352 318 290 270 249 228 204 205
345 344 343 341 341 330 340 34 47 32 45 80 75 80 250 112 132 81 82 86 128 330 65 242 127 147 28 14 338 47 54 358 49 344 344 31 45 278 68 57 63 41 44 54 73 79 114 282 303 340 27 76 61 26 29 18 7 355 90 104 53 353 7 209 290 332 303 339 176 40 57 32 9 22 27 13 34 47 14 19 2 346 312 270 259 277 243 195
346 343 343 340 340 344 319 56 38 64 166 44 55 276 259 132 94 64 96 20 20 16 163 73 124 69 316 279 342 191 258 288 73 226 292 51 339 41 40 140 95 17 150 122 83 72 41 348 334 35 27 34 54 34 26 21 8 339 257 134 142 153 296 288 294 333 21 337 352 56 49 26 343 11 22 348 19 27 345 23 358 338 343 345 336 287 265 269
345 346 344 342 343 343 309 49 347 161 68 56 215 267 242 107 84 75 88 80 42 291 6 8 175 351 165 347 23 349 31 56 279 330 30 345 201 115 27 23 74 50 201 85 97 104 80 340 47 53 48 40 61 89 330 46 345 58 330 154 130 155 271 285 314 22 19 74 333 52 120 170 333 16 347 335 11 16 1 23 359 358 354 354 337 332 4 122
345 345 347 347 347 357 68 2 186 109 39 338 263 245 225 123 168 34 59 354 37 311 14 262 60 352 80 313 342 81 46 309 322 5 17 357 27 297 91 342 16 20 84 155 37 5 7 356 17 30 28 28 23 16 350 35 11 322 258 124 14 318 297 271 89 12 175 273 298 35 65 130 7 336 325 326 14 20 13 2 359 358 360 1 3 16 33 11
346 344 346 351 359 27 143 119 37 52 139 245 135 151 99 121 83 44 77 61 337 1 12 318 54 336 69 316 19 73 147 292 27 347 47 313 33 359 82 61 84 18 311 76 98 260 64 344 15 9 13 24 21 329 304 66 198 267 195 7 308 277 248 189 138 149 218 82 356 349 14 62 251 273 317 334 44 1 5 342 343 346 350 1 11 22 23 15
347 345 343 350 343 56 58 91 106 90 235 186 152 80 75 91 95 100 129 102 264 78 188 28 234 25 341 2 34 26 346 8 92 292 325 338 23 174 51 12 129 63 39 91 135 235 335 128 290 135 34 2 303 306 302 190 1 283 297 304 32 87 98 133 97 81 358 71 14 6 347 103 285 259 330 338 82 2 320 320 318 320 323 337 353 357 7 5
345 347 344 346 12 19 4 34 55 185 172 129 86 125 98 75 36 34 19 41 4 293 37 271 57 296 21 45 339 8 34 343 139 310 14 75 339 28 61 193 106 50 55 27 75 182 241 298 177 74 17 303 301 290 245 222 218 287 360 55 1 42 56 37 71 91 51 41 271 172 346 122 275 275 247 258 346 228 295 314 310 320 332 331 315 312 321 326
343 347 351 356 64 282 2 26 294 226 181 81 89 78 98 39 108 97 82 221 56 285 11 25 345 20 25 44 354 341 36 350 348 16 2 0 11 26 12 31 30 61 62 28 45 341 3 351 37 310 307 303 87 325 309 275 278 351 4 3 63 343 13 32 344 33 79 304 264 224 353 169 143 276 262 242 280 225 204 284 299 315 310 306 305 306 300 322
340 346 352 30 314 53 70 295 261 130 121 126 88 58 81 276 10 79 163 331 238 291 69 295 326 58 16 334 65 346 355 336 6 30 44 17 38 35 5 83 330 42 2 19 357 1 10 19 292 311 236 32 339 44 322 7 349 13 356 10 71 292 38 282 11 10 7 174 208 118 1 28 308 212 213 269 267 282 223 212 230 261 287 295 301 298 295 316
335 346 359 47 20 50 49 191 93 131 101 61 74 56 58 91 68 275 287 331 217 40 299 115 275 354 331 58 358 343 281 47 319 36 82 5 89 51 55 53 332 108 29 336 1 16 285 291 358 339 18 15 34 49 337 2 353 3 21 12 66 44 36 253 273 217 318 291 262 42 308 154 227 290 209 194 226 218 227 229 229 232 255 278 287 300 314 314
331 345 61 342 119 167 193 117 138 105 86 63 74 32 43 58 235 84 137 271 216 353 47 4 338 3 40 76 329 2 33 292 37 349 35 354 42 29 346 9 18 3 78 22 55 349 40 347 340 20 11 349 45 98 304 235 317 289 240 42 143 128 102 343 295 3 251 240 291 305 59 234 68 265 173 201 216 284 252 257 259 264 268 282 283 286 296 306
325 66 129 351 39 282 178 142 102 113 88 67 51 82 104 234 193 180 245 271 300 321 257 265 9 54 337 24 323 340 137 329 56 51 17 44 13 37 4 334 343 84 333 66 301 80 246 222 261 242 249 4 355 318 306 131 331 266 146 101 46 16 143 109 211 197 271 329 332 341 217 160 152 277 323 242 313 299 342 299 333 310 315 325 325 318 302 295
359 321 97 338 44 287 134 137 107 95 102 57 74 40 93 180 158 122 129 183 339 181 286 360 74 61 319 318 313 51 306 89 335 79 353 62 237 60 299 315 357 359 23 106 275 24 26 16 296 315 345 46 294 353 346 106 38 307 53 19 234 194 102 31 2 25 45 53 262 206 324 314 296 328 49 6 354 277 338 318 337 313 307 316 314 304 298 291
18 336 40 330 354 197 163 131 120 91 59 86 90 95 194 330 212 161 354 142 219 148 53 138 312 87 349 323 295 338 301 63 351 87 1 345 359 27 357 349 224 3 50 129 358 187 137 268 304 35 350 338 184 169 257 5 87 31 41 291 99 88 125 118 258 331 59 133 260 16 306 308 9 313 286 240 286 286 310 299 286 294 292 301 301 291 289 288
12 32 274 340 290 130 130 144 103 49 77 77 63 123 325 79 306 123 232 43 336 17 87 94 256 66 244 112 335 336 315 82 329 54 156 4 121 190 19 340 354 89 326 318 124 291 87 5 293 251 227 276 352 75 354 322 28 91 121 232 75 335 358 325 92 6 342 330 290 310 299 250 196 244 173 251 230 277 291 293 301 315 331 320 311 301 295 294
59 74 19 295 279 141 148 101 66 70 64 61 178 98 271 143 236 163 225 157 153 151 81 236 139 329 136 145 253 296 332 56 332 81 67 342 68 88 84 169 290 340 344 9 59 320 25 181 299 278 206 309 5 64 97 303 328 29 12 21 360 103 151 356 154 182 128 270 22 296 20 263 220 222 191 229 211 226 272 296 315 319 296 297 291 287 286 290
27 36 317 271 295 88 143 86 55 42 60 105 179 124 198 99 230 263 238 173 254 92 222 127 187 109 26 186 143 33 341 76 69 325 93 310 98 11 36 10 339 322 354 13 106 346 298 101 259 281 307 350 339 357 120 75 17 331 24 0 353 1 212 123 24 110 183 200 188 253 330 278 264 215 173 215 209 224 228 253 292 295 291 282 282 283 288 289
43 102 272 289 331 155 48 43 44 34 89 208 83 149 52 178 196 286 235 154 148 303 172 148 152 113 194 101 13 18 13 48 29 50 64 342 87 328 40 9 8 335 334 13 48 2 55 15 253 308 359 27 226 185 155 158 166 189 131 116 167 66 28 51 290 11 55 68 261 85 271 274 273 182 203 199 221 220 228 272 299 297 295 294 296 298 293 294
79 36 285 316 344 77 76 53 23 72 93 102 88 157 104 125 70 272 359 316 138 150 341 106 55 118 103 78 157 68 109 39 360 75 311 129 346 107 309 44 272 266 67 89 14 280 131 161 89 306 222 261 272 189 134 132 151 199 166 110 147 124 107 99 111 282 358 243 112 164 227 275 241 222 194 199 218 241 256 224 289 292 291 294 297 296 296 292
58 176 257 348 335 84 67 73 8 41 67 231 302 346 347 32 131 225 132 311 99 130 19 62 180 97 224 164 169 84 166 127 158 54 177 318 229 176 266 265 339 31 86 326 51 292 68 68 350 283 306 306 337 33 68 32 152 13 347 43 88 265 178 169 175 177 174 312 29 348 236 251 283 260 226 243 250 259 265 234 277 305 303 300 299 298 297 297
163 249 328 294 37 95 79 137 94 351 62 312 73 173 343 183 132 44 54 295 140 7 143 167 345 272 146 119 109 127 218 87 243 109 97 172 94 123 30 6 11 301 77 222 128 279 31 297 115 318 358 338 342 352 6 341 57 154 209 272 168 81 68 134 104 61 251 228 177 130 235 279 275 345 331 318 329 321 310 313 314 305 303 299 299 297 295 297
122 290 237 304 359 51 109 173 128 145 180 141 112 102 333 12 71 202 160 181 15 167 93 300 188 156 78 128 94 104 331 120 185 290 122 169 168 58 10 35 356 124 266 203 98 96 100 211 91 40 38 358 335 325 303 309 262 246 344 131 212 124 135 8 312 9 137 274 131 172 249 259 271 294 300 301 311 307 308 303 304 289 284 290 293 297 304 310
39 138 306 347 14 36 61 48 101 130 136 149 78 245 105 86 353 306 137 354 197 115 47 132 1 84 106 89 70 52 89 319 113 227 130 226 255 16 204 330 84 150 237 75 47 100 150 9 156 157 150 194 221 239 244 25 360 325 255 158 222 216 163 113 112 111 210 214 198 239 220 284 297 296 310 302 310 297 299 304 301 300 293 288 288 297 298 294
173 81 349 354 344 46 81 24 80 86 167 179 114 173 176 142 208 352 167 359 251 149 41 46 196 140 239 99 164 100 220 36 353 110 219 172 238 196 337 79 320 329 299 99 12 84 73 44 263 193 227 230 242 257 242 90 262 264 275 256 222 217 178 156 167 217 175 78 290 252 234 234 269 287 291 296 301 305 300 298 299 297 295 296 293 289 290 290
68 257 94 208 130 267 54 4 75 88 71 79 104 68 152 125 332 145 339 322 9 332 97 330 78 299 174 174 143 118 176 97 31 192 93 274 109 5 90 1 60 309 357 318 340 123 143 241 275 119 267 257 260 264 270 259 230 249 247 250 233 212 180 194 226 207 137 181 234 248 147 259 280 286 287 290 295 290 290 287 284 284 287 289 292 295 299 307
108 144 139 306 142 272 105 172 95 107 86 101 106 96 162 155 189 214 166 62 27 308 73 251 260 220 203 262 106 127 166 89 300 291 188 189 208 138 62 23 299 12 59 18 13 152 87 264 224 207 278 279 272 267 273 238 269 273 256 248 232 203 216 219 232 209 196 236 252 274 287 280 275 275 285 288 285 280 281 288 295 295 288 287 293 302 311 310
246 114 263 11 84 118 262 73 92 68 73 48 107 240 158 178 173 207 318 124 117 278 41 190 270 153 166 147 121 124 219 188 175 186 215 122 66 171 215 189 165 355 34 121 42 313 101 277 65 76 346 296 292 324 14 212 211 271 265 252 240 222 229 234 238 231 220 261 262 265 274 278 275 278 277 275 282 287 292 292 289 288 292 296 304 307 306 301
152 158 148 110 55 325 27 26 73 103 106 333 85 212 118 193 211 177 139 160 156 179 181 210 190 93 55 113 144 258 233 176 153 320 177 155 203 215 135 268 124 147 102 27 350 305 41 255 54 70 6 298 302 348 318 7 297 251 287 292 268 198 226 224 205 209 170 226 249 296 276 262 271 314 288 296 294 299 298 297 298 295 295 299 302 300 300 295
80 69 87 105 90 304 72 348 12 80 35 224 146 198 176 229 196 151 85 149 86 56 191 161 174 105 48 62 243 226 215 176 163 68 151 108 87 74 44 138 140 149 178 152 241 127 157 120 46 37 352 257 265 317 294 312 324 339 281 239 228 207 215 276 270 214 215 170 178 209 246 249 275 299 317 305 305 298 297 295 296 299 294 294 291 291 291 286